This is the latest recevied weather packets stored in our database for station/object TONGUE. If no packets are shown the sender has not sent any weather packets the latest 10 day(s).
| Time | Temp. | Humidity | Pressure | Rain* | Wind** | Luminosity | Snow |
|---|---|---|---|---|---|---|---|
| 1788028803 | 18.33° C | 70% | 0 hPa | - | - | - | - |
| 1788028203 | 17.78° C | 73% | 0 hPa | - | - | - | - |
| 1788027603 | 18.33° C | 72% | 0 hPa | - | - | - | - |
| 1788027008 | 17.22° C | 75% | 0 hPa | - | - | - | - |
| 1788026403 | 17.78° C | 77% | 0 hPa | - | - | - | - |
| 1788025803 | 17.22° C | 77% | 0 hPa | - | - | - | - |
| 1788025203 | 17.78° C | 75% | 0 hPa | - | - | - | - |
| 1788024603 | 17.22° C | 76% | 0 hPa | - | - | - | - |
| 1788024003 | 17.22° C | 80% | 0 hPa | - | - | - | - |
| 1788023403 | 16.67° C | 81% | 0 hPa | - | - | - | - |
| 1788022804 | 17.22° C | 82% | 0 hPa | - | - | - | - |
| 1788022203 | 16.67° C | 83% | 0 hPa | - | - | - | - |
| 1788021003 | 16.67° C | 87% | 0 hPa | - | - | - | - |
| 1788020403 | 17.78° C | 83% | 0 hPa | - | - | - | - |
| 1788019803 | 16.67° C | 89% | 0 hPa | - | - | - | - |
| 1788019204 | 17.22° C | 86% | 0 hPa | - | - | - | - |
| 1788017403 | 15.56° C | 97% | 0 hPa | - | - | - | - |
| 1788016803 | 15.56° C | 97% | 0 hPa | - | - | - | - |
| 1788015608 | 15° C | 100% | 0 hPa | - | - | - | - |
| 1788014403 | 14.44° C | - | - | - | - | - | - |
| 1788013203 | 13.89° C | 99% | 0 hPa | - | - | - | - |
| 1788012603 | 13.89° C | 100% | 0 hPa | - | - | - | - |
| 1788012003 | 14.44° C | 94% | 0 hPa | - | - | - | - |
| 1788011403 | 14.44° C | 94% | 0 hPa | - | - | - | - |
| 1788010803 | 13.89° C | 97% | 0 hPa | - | - | - | - |
* Rain since midnight (hover to see other rain measurements)
** Current wind speed in m/s (hover to see current wind gust speed)